Regional Weather Roundup
Issued by NWS

Home | Current Version | Previous Version | Text Only | Print | Product List | Glossary Off
Versions: 1 2 3 4 5 6 7 8 9 10 11 12 13 14 15 16 17 18 19 20 21 22 23 24 25 26 27 28 29 30 31 32 33 34 35 36 37 38 39 40 41 42 43 44 45 46 47 48 49 50

000
ASUS45 KSLC 301710
RWRUT

UTAH REGIONAL WEATHER ROUNDUP
NATIONAL WEATHER SERVICE SALT LAKE CITY UT
1100 AM MDT SAT AUG 30 2014

UTZ001>011-023>025-301800-

NORTHERN UTAH

CITY           SKY/WX    TMP DP  RH WIND       PRES   REMARKS
HILL AFB       CLOUDY    73  45  37 S13       30.00R
LOGAN          SUNNY     70  55  59 VRB7      29.95R
OGDEN          CLOUDY    72  46  39 S10       29.97R
PROVO AIRPORT  CLOUDY    70  52  52 VRB5      30.04R
SALT LAKE CITY CLOUDY    78  39  24 S10       29.95R
VERNAL         PTSUNNY   66  48  52 CALM      30.09S
WENDOVER       CLOUDY    75  36  23 NW7       29.97S
HEBER CITY     CLOUDY    63  50  63 CALM      30.07S
WEST JORDAN    MOSUNNY   75  50  41 S9        30.00R

$$

UTZ012>022-026-027-301800-

SOUTHERN UTAH

CITY           SKY/WX    TMP DP  RH WIND       PRES   REMARKS
BRYCE CANYON   MOSUNNY   71  40  32 CALM      30.28S
CEDAR CITY     CLOUDY    79  33  19 SW13      30.10S
MILFORD        CLOUDY    77  38  24 S13       30.05R
MOAB/CYNLANDS  SUNNY     78  44  29 SE7       30.03F
PRICE          CLOUDY    71  41  33 S3        30.14R
ST GEORGE      CLOUDY    79  43  27 S3        29.97S

$$

REGIONAL REPORTS     COLORADO/ARIZONA

CITY           SKY/WX    TMP DP  RH WIND       PRES   REMARKS
CRAIG, CO      SUNNY     73  46  38 NE8       30.13F
GRAND JUNCTION MOSUNNY   73  47  39 SE10      30.08F
RIFLE          PTSUNNY   66  46  48 CALM      30.14F
MONTROSE       SUNNY     73  49  42 N6        30.17F
CORTEZ         SUNNY     75  43  31 CALM      30.19F
PAGE, AZ       MOSUNNY   82  37  20 S3        30.06S
GRAND CANYON   MOSUNNY   77  34  21 SW10      30.25S
KINGMAN        SUNNY     91  36  14 SW3       29.99R
FLAGSTAFF      SUNNY     75  41  29 S10       30.28S

$$

REGIONAL REPORTS    NEVADA/IDAHO/WYOMING

CITY           SKY/WX    TMP DP  RH WIND       PRES   REMARKS
LAS VEGAS, NV  PTSUNNY   92  39  15 VRB3      29.82R
ELY            CLOUDY    70  37  29 CALM      30.12F
ELKO           MOSUNNY   75  35  23 SW10      30.03S
POCATELLO, ID  SUNNY     68  46  45 SW24G32   29.97R
BURLEY         PTSUNNY   68  46  45 W14G24    29.95R
EVANSTON, WY   PTSUNNY   68  41  37 SW12      30.12F
ROCK SPRINGS   SUNNY     74  36  25 W20G26    30.08S

$$


USA.gov is the U.S. government's official web portal to all federal, state and local government web resources and services.